Location: City of Moscow
(46.7306°N, 116.9989°W)
Time: 23:59:37
(UTC+00:00)

COSMO-SKYMED 1 - Visible Passes

Search period start: 13 March 2026 00:00
Search period end: 23 March 2026 00:00
Orbit: 576 x 579 km, 97.9° (Epoch: 13 March)

Date Brightness Start Highest point End Pass type
(mag) Time Alt. Az. Time Alt. Az. Time Alt. Az.
13 Mar 2.4 02:18:36 10° NNE 02:22:43 73° ESE 02:26:48 10° S visible
13 Mar 5.8 03:55:33 10° NNW 03:57:25 13° WNW 03:59:16 10° W visible
13 Mar 2.8 13:09:45 10° SSE 13:13:50 70° ENE 13:17:56 10° N visible
14 Mar 2.4 02:22:44 10° NNE 02:26:53 81° ESE 02:30:58 10° S visible
14 Mar 5.9 04:00:01 10° NW 04:01:31 12° WNW 04:03:01 10° W visible
14 Mar 2.6 13:13:53 10° SSE 13:17:58 78° ENE 13:22:05 10° N visible
15 Mar 2.4 02:26:53 10° NNE 02:31:00 89° E 02:35:06 10° SSW visible
15 Mar 6.0 04:04:35 10° NW 04:05:36 11° WNW 04:06:37 10° WNW visible
15 Mar 6.1 11:47:05 10° ENE 11:47:33 10° ENE 11:48:01 10° NE visible
15 Mar 2.5 13:18:00 10° SSE 13:22:05 86° E 13:26:14 10° NNW visible
16 Mar 2.5 02:31:00 10° NNE 02:35:08 83° WNW 02:39:14 10° SSW visible
16 Mar 5.9 11:50:24 10° ENE 11:51:37 11° ENE 11:52:49 10° NE visible
16 Mar 2.4 13:22:07 10° SSE 13:26:13 86° WSW 13:30:21 10° NNW visible
17 Mar 2.7 02:35:08 10° N 02:39:15 75° WNW 02:43:20 10° SSW visible
17 Mar 5.9 11:54:03 10° E 11:55:41 12° ENE 11:57:19 10° NE visible
17 Mar 2.4 13:26:14 10° S 13:30:20 78° WSW 13:34:28 10° NNW visible
18 Mar 2.9 02:39:15 10° N 02:43:21 68° WNW 02:47:24 10° SSW visible
18 Mar 5.8 11:57:46 10° E 11:59:44 13° ENE 12:01:42 10° NNE visible
19 Mar 3.1 02:43:22 10° N 02:47:27 61° WNW 02:51:29 10° SSW visible
19 Mar 5.7 12:01:33 10° E 12:03:46 14° ENE 12:06:00 10° NNE visible
20 Mar 3.3 02:47:29 10° N 02:51:31 55° WNW 02:55:31 10° SSW visible
20 Mar 5.7 12:05:22 10° E 12:07:49 16° ENE 12:10:16 10° NNE visible
21 Mar 3.5 02:51:36 10° N 02:55:35 50° WNW 02:59:33 10° SSW visible
21 Mar 5.6 12:09:12 10° ESE 12:11:51 17° ENE 12:14:31 10° NNE visible
22 Mar 3.7 02:55:42 10° N 02:59:39 45° WNW 03:03:33 10° SW visible
22 Mar 5.5 12:13:02 10° ESE 12:15:52 18° ENE 12:18:43 10° NNE visible
